User: anonymous   Login
Location: Breux
(46.3269°N, 3.2993°E)
Time: 21:18:05
(UTC+00:00)
Language:

Okean 3 Rocket - Orbit

View from above orbital plane
View from above orbital plane
View from above satellite
View from above satellite

Ground track
Ground track

The orbit data is extracted from the following two-line orbital elements,

1 21398U 91039B   20184.76318007  .00000047  00000-0  31251-5 0  9990
2 21398  82.5235 271.3482 0022512 136.1558 224.1447 14.79766091568281
Epoch (UTC): 02 July 2020 18:18:58
Eccentricity: 0.0022512
inclination: 82.5235°
perigee height: 614 km
apogee height: 646 km
right ascension of ascending node: 271.3482°
argument of perigee: 136.1558°
revolutions per day: 14.79766091
mean anomaly at epoch: 224.1447°
orbit number at epoch: 56828

The dashed part of the orbit path shows where the satellite is in the earth's shadow,  

DLR